(297191) = 2004 FZ154 = 2006 XF12 = 2006 YJ55 = 2010 XZ41

Discovered at Kitt Peak on 2004-03-17 by Spacewatch.

Orbit

Orbit type: Main Belt

Note: WebGL enabled browser required.

epoch2024-03-31.0
epoch JD2460400.5
perihelion date2021-09-05.25843
perihelion JD2459462.75843
argument of perihelion (°)308.88227
ascending node (°)76.32464
inclination (°)1.71501
eccentricity0.0729882
perihelion distance (AU)2.2629215
Tisserand w.r.t. Jupiter3.5
ΔV w.r.t. Earth (km/sec)9.4
semimajor axis (AU)2.4410926
mean anomaly (°)242.33193
mean daily motion (°/day)0.25842080
aphelion distance (AU)2.619
period (years)3.81
P-vector [x]0.90443692
P-vector [y]0.40008762
P-vector [z]0.14806672
Q-vector [x]-0.42561512
Q-vector [y]0.82258166
Q-vector [z]0.37710898
absolute magnitude17.45
phase slope0.15
uncertainty0
referenceMPEC 2024-C181
observations used257
oppositions13
arc length (days)6950
first opposition used2004
last opposition used2023
residual rms (arc-secs)0.78
perturbers coarse indicatorM-v
perturbers precise indicator003Ek
first observation date used2004-03-17.0
last observation date used2023-03-28.0
computer nameMPCLINUX
JD of orbit computation2456552.228385
perihelion JD uncertainty (days)2.0428E-04
argument of perihelion uncertainty (°)2.1423E-04
ascending node uncertainty (°)2.0750E-04
inclination uncertainty (°)7.6004E-06
eccentricity uncertainty 7.0981E-08
perihelion distance uncertainty (AU)1.8016E-07
Minimum Orbit Intersection Distances (in AU)
for orbit epoch: 2460400.5, reference: E2024-CI1
Mercury1.91773
Venus1.53844
Earth1.26705
Mars0.78316
Jupiter2.6785
Saturn6.65562
Uranus15.858
Neptune27.5575

Observations

273 total observations over interval: 2004 03 17.39364 – 2023 03 28.257776
These data are available for download (format description).

Date (UT) J2000 RA J2000 Dec Magn Location Ref
2004 03 17.39364 12 09 52.74 +01 52 25.6 21.6 V 691 – Steward Observatory, Kitt Peak-Spacewatch MPS 110344
2004 03 17.42475 12 09 50.95 +01 52 36.9 22.1 V 691 – Steward Observatory, Kitt Peak-Spacewatch MPS 110344
2004 03 17.45638 12 09 49.21 +01 52 48.1 21.3 V 691 – Steward Observatory, Kitt Peak-Spacewatch MPS 110344
2004 03 29.20364 11 59 08.87 +02 59 26.6 21.6 V 691 – Steward Observatory, Kitt Peak-Spacewatch MPS 110344
2004 03 29.23329 11 59 07.26 +02 59 36.3 21.8 V 691 – Steward Observatory, Kitt Peak-Spacewatch MPS 110344
2004 03 29.26132 11 59 05.73 +02 59 44.7 21.5 V 691 – Steward Observatory, Kitt Peak-Spacewatch MPS 110344
2005 06 08.41183 20 06 26.11 -21 29 01.2 21.2 V 691 – Steward Observatory, Kitt Peak-Spacewatch MPS 367226
2005 06 08.42923 20 06 25.78 -21 29 03.3 21.1 V 691 – Steward Observatory, Kitt Peak-Spacewatch MPS 367226
2005 06 08.44661 20 06 25.45 -21 29 05.1 21.2 V 691 – Steward Observatory, Kitt Peak-Spacewatch MPS 367226
2006 11 17.39568 05 49 36.96 +23 18 38.2 20.5 V 691 – Steward Observatory, Kitt Peak-Spacewatch MPS 367226
2006 11 17.41304 05 49 36.25 +23 18 38.7 20.6 V 691 – Steward Observatory, Kitt Peak-Spacewatch MPS 367226
2006 11 17.43041 05 49 35.55 +23 18 39.3 20.4 V 691 – Steward Observatory, Kitt Peak-Spacewatch MPS 367226
2006 12 10.14801 05 28 38.18 +23 27 57.3   691 – Steward Observatory, Kitt Peak-Spacewatch MPS 192601
2006 12 10.16540 05 28 36.98 +23 27 57.5   691 – Steward Observatory, Kitt Peak-Spacewatch MPS 192601
2006 12 10.18278 05 28 35.82 +23 27 57.8   691 – Steward Observatory, Kitt Peak-Spacewatch MPS 192601
2006 12 13.29797 05 25 08.22 +23 27 59.0 19.8 V G96 – Mt. Lemmon Survey MPS 367226
2006 12 13.30413 05 25 07.82 +23 27 57.6 19.1 V G96 – Mt. Lemmon Survey MPS 367226
2006 12 13.31027 05 25 07.39 +23 27 59.1 19.7 V G96 – Mt. Lemmon Survey MPS 367226
2006 12 13.31642 05 25 06.96 +23 27 59.0 19.6 V G96 – Mt. Lemmon Survey MPS 367226
2006 12 21.27453 05 16 23.84 +23 26 36.1   701 – Junk Bond Observatory, Sierra Vista MPC 67088
2006 12 21.29675 05 16 22.45 +23 26 36.7   701 – Junk Bond Observatory, Sierra Vista MPC 67088
2006 12 21.31897 05 16 20.96 +23 26 36.3   701 – Junk Bond Observatory, Sierra Vista MPC 67088
2006 12 21.34119 05 16 19.53 +23 26 35.7   701 – Junk Bond Observatory, Sierra Vista MPC 67088
2007 02 07.17962 04 56 37.28 +23 28 07.5 21.1 V G96 – Mt. Lemmon Survey MPS 367226
2007 02 07.18796 04 56 37.46 +23 28 07.8 20.5 V G96 – Mt. Lemmon Survey MPS 367226
2007 02 07.19626 04 56 37.60 +23 28 08.1 20.1 V G96 – Mt. Lemmon Survey MPS 367226
2007 02 07.20456 04 56 37.78 +23 28 08.6 20.4 V G96 – Mt. Lemmon Survey MPS 367226
2008 03 28.32002 13 30 51.22 -06 59 29.0 21.5 V G96 – Mt. Lemmon Survey MPS 367226
2008 03 28.32668 13 30 50.90 -06 59 27.5 20.8 V G96 – Mt. Lemmon Survey MPS 367226
2008 03 28.33330 13 30 50.50 -06 59 25.1 20.9 V G96 – Mt. Lemmon Survey MPS 367227
2008 03 28.34001 13 30 50.18 -06 59 23.7 21.7 V G96 – Mt. Lemmon Survey MPS 367227
2008 04 05.33295 13 23 50.64 -06 18 55.7 19.6 V G96 – Mt. Lemmon Survey MPS 367227
2008 04 05.33959 13 23 50.28 -06 18 51.0 20.9 V G96 – Mt. Lemmon Survey MPS 367227
2008 04 05.34627 13 23 49.92 -06 18 49.1 21.2 V G96 – Mt. Lemmon Survey MPS 367227
2008 04 05.35288 13 23 49.52 -06 18 46.7 21.4 V G96 – Mt. Lemmon Survey MPS 367227
2008 04 12.26608 13 17 27.49 -05 42 48.3 21.0 V G96 – Mt. Lemmon Survey MPS 367227
2008 04 12.27501 13 17 26.95 -05 42 45.0 21.2 V G96 – Mt. Lemmon Survey MPS 367227
2008 04 12.28403 13 17 26.44 -05 42 41.7 20.5 V G96 – Mt. Lemmon Survey MPS 367227
2008 04 12.29302 13 17 25.94 -05 42 38.5 20.7 V G96 – Mt. Lemmon Survey MPS 367227
2008 04 25.13970 13 06 06.02 -04 41 03.5 21.1 V 691 – Steward Observatory, Kitt Peak-Spacewatch MPS 367227
2008 04 25.16072 13 06 04.99 -04 40 58.2 20.7 V 691 – Steward Observatory, Kitt Peak-Spacewatch MPS 367227
2008 04 25.17920 13 06 04.06 -04 40 53.0 20.4 V 691 – Steward Observatory, Kitt Peak-Spacewatch MPS 367227
2010 11 28.46351 07 46 33.85 +22 04 00.5 20.9 V G96 – Mt. Lemmon Survey MPS 362863
2010 11 28.46964 07 46 33.74 +22 04 01.1 20.4 V G96 – Mt. Lemmon Survey MPS 362863
2010 11 28.47574 07 46 33.63 +22 04 01.7 21.4 V G96 – Mt. Lemmon Survey MPS 362863
2010 11 28.48182 07 46 33.56 +22 04 01.9 20.5 V G96 – Mt. Lemmon Survey MPS 362863
2010 12 05.39238 07 44 36.19 +22 15 54.9   691 – Steward Observatory, Kitt Peak-Spacewatch MPS 359437
2010 12 05.41013 07 44 35.74 +22 15 57.7   691 – Steward Observatory, Kitt Peak-Spacewatch MPS 359437
2010 12 05.42789 07 44 35.29 +22 15 59.7   691 – Steward Observatory, Kitt Peak-Spacewatch MPS 359437
2010 12 09.38922 07 42 43.90 +22 24 36.4 20.9 V 691 – Steward Observatory, Kitt Peak-Spacewatch MPS 359437
2010 12 09.40700 07 42 43.38 +22 24 38.1 20.8 V 691 – Steward Observatory, Kitt Peak-Spacewatch MPS 359437
2010 12 09.45213 07 42 41.77 +22 24 44.7 21.0 V 691 – Steward Observatory, Kitt Peak-Spacewatch MPS 359437
2010 12 13.40643 07 40 19.93 +22 34 26.8   691 – Steward Observatory, Kitt Peak-Spacewatch MPS 359437
2010 12 13.42423 07 40 19.15 +22 34 29.8   691 – Steward Observatory, Kitt Peak-Spacewatch MPS 359437
2010 12 13.44203 07 40 18.43 +22 34 32.1   691 – Steward Observatory, Kitt Peak-Spacewatch MPS 359437
2011 01 02.19612 07 22 27.19 +23 31 22.0 20.2 V G96 – Mt. Lemmon Survey MPS 363415
2011 01 02.20594 07 22 26.50 +23 31 24.2 21.0 V G96 – Mt. Lemmon Survey MPS 363415
2011 01 02.21577 07 22 25.93 +23 31 25.7 20.4 V G96 – Mt. Lemmon Survey MPS 363415
2011 01 02.22558 07 22 25.24 +23 31 27.9 21.0 V G96 – Mt. Lemmon Survey MPS 363415
2012 03 29.42550 14 58 34.47 -15 06 52.8 21.3 V 691 – Steward Observatory, Kitt Peak-Spacewatch MPS 420188
2012 03 29.44330 14 58 33.96 -15 06 50.5 21.2 V 691 – Steward Observatory, Kitt Peak-Spacewatch MPS 420188
2012 03 29.46107 14 58 33.49 -15 06 47.9 21.0 V 691 – Steward Observatory, Kitt Peak-Spacewatch MPS 420188
2012 05 13.28661 14 21 41.86 -12 30 33.4 20.1 V G96 – Mt. Lemmon Survey MPS 424870
2012 05 13.29300 14 21 41.65 -12 30 31.8 20.7 V G96 – Mt. Lemmon Survey MPS 424870
2012 05 13.29939 14 21 41.22 -12 30 30.9 21.5 V G96 – Mt. Lemmon Survey MPS 424870
2012 05 13.30575 14 21 40.86 -12 30 29.5 21.1 V G96 – Mt. Lemmon Survey MPS 424870
2013 09 10.43641 23 10 27.963 -08 37 42.89 20.2 g F51 – Pan-STARRS 1, Haleakala MPS 477590
2013 09 10.44805 23 10 27.315 -08 37 46.48 20.3 g F51 – Pan-STARRS 1, Haleakala MPS 477590
2015 01 17.40903 09 09 23.091 +18 38 55.34 20.5 w F51 – Pan-STARRS 1, Haleakala MPS 586930
2015 01 17.42104 09 09 22.417 +18 38 58.84 20.6 w F51 – Pan-STARRS 1, Haleakala MPS 586930
2015 01 17.43307 09 09 21.750 +18 39 02.30 20.5 w F51 – Pan-STARRS 1, Haleakala MPS 586930
2015 01 17.44511 09 09 21.069 +18 39 05.79 20.5 w F51 – Pan-STARRS 1, Haleakala MPS 586931
2015 01 17.56998 09 09 14.043 +18 39 41.13 20.6 w F51 – Pan-STARRS 1, Haleakala MPS 586931
2015 01 17.58226 09 09 13.354 +18 39 44.58 20.5 w F51 – Pan-STARRS 1, Haleakala MPS 586931
2015 01 17.59462 09 09 12.661 +18 39 47.97 20.7 w F51 – Pan-STARRS 1, Haleakala MPS 586931
2015 01 17.60703 09 09 11.974 +18 39 51.34 20.6 w F51 – Pan-STARRS 1, Haleakala MPS 586931
2015 01 20.37309 09 06 38.990 +18 53 04.78 20.4 w F51 – Pan-STARRS 1, Haleakala MPS 566948
2015 01 20.38512 09 06 38.286 +18 53 08.36 20.4 w F51 – Pan-STARRS 1, Haleakala MPS 566948
2015 01 20.38716 09 06 37.85 +18 53 07.4 20.5 r G45 – Space Surveillance Telescope, Atom Site MPS 579609
2015 01 20.39585 09 06 37.34 +18 53 10.2 19.8 r G45 – Space Surveillance Telescope, Atom Site MPS 579609
2015 01 20.39717 09 06 37.573 +18 53 11.82 20.4 w F51 – Pan-STARRS 1, Haleakala MPS 566948
2015 01 20.40431 09 06 36.95 +18 53 13.2 19.8 r G45 – Space Surveillance Telescope, Atom Site MPS 579609
2015 01 20.40942 09 06 36.853 +18 53 15.47 20.3 w F51 – Pan-STARRS 1, Haleakala MPS 566948
2015 01 20.41054 09 06 36.49 +18 53 15.0 20.4 r G45 – Space Surveillance Telescope, Atom Site MPS 579609
2015 01 20.41462 09 06 36.25 +18 53 15.7 20.8 r G45 – Space Surveillance Telescope, Atom Site MPS 579609
2015 01 20.41883 09 06 36.02 +18 53 16.8 20.7 r G45 – Space Surveillance Telescope, Atom Site MPS 579609
